sat.trackr.live / text

‹ back to catalog

TJS-2

NORAD 41911 · 2017-001A

PAYLOAD ACTIVE UNKNOWN

§ Identity

Operator
Country
PRC
Launch date
2017-01-05
Launch site
XICLF
Launch vehicle
Mass (kg)
RCS (m²)
43.79

Purposes: comms

External: N2YO · Heavens-Above · Gunter

§ Orbital elements

Epoch: 2026-09-20T03:33:03.793248Z

Period
1,436.09 min
Inclination
1.0708°
Eccentricity
0.0001607
Mean motion
1.00272420 rev/d
Perigee alt
35,779.6 km
Apogee alt
35,793.2 km
Semi-major
42,164.6 km
B*
0.0000e+0
RAAN
83.8408°
Arg perigee
149.5714°
Mean anomaly
245.4640°
Rev number
3,567

§ Raw data

TJS-21 41911U 17001A   26263.14796057 -.00000011  00000+0  00000+0 0  99942 41911   1.0708  83.8408 0001607 149.5714 245.4640  1.00272420 35674

JSON: /api/v1/satellites/41911 · /tle

For live sub-satellite position, see the globe view (requires WebGL).

§ Visibility from observer

Set your observer location to see the next 7 days of passes ≥ 10°. The values pass through the URL so the page stays shareable.

No JS? Fill the form by hand. The geolocation button needs JavaScript.